Weather Service Report


028 
ASUS42 KFFC 300003
RWRGA 
WEATHER ROUNDUP FOR GEORGIA
NATIONAL WEATHER SERVICE PEACHTREE CITY GA
800 PM EDT FRI APR 29 2016

NOTE: "FAIR" INDICATES FEW OR NO CLOUDS BELOW 12,000 FEET WITH NO
SIGNIFICANT WEATHER AND/OR OBSTRUCTIONS TO VISIBILITY. 

* = USE WITH CAUTION. THE STATIONS MARKED WITH AN ASTERISK MAY NOT
REPORT WEATHER SUCH AS PRECIPITATION, FOG, OR THUNDER AND ARE NOT 
QUALITY CONTROLLED BY NWS.

THE REMARK "TC" DENOTES TEMPERATURE READING IN DEGREES CELSIUS.

GAZ001>058-300100-
NORTH GEORGIA
  
CITY           SKY/WX    TMP DP  RH WIND       PRES   REMARKS
ATLANTA        CLOUDY    82  51  34 W3        29.96R                  
6HR MIN TEMP:  80; 6HR MAX TEMP:  88;                                

ATHENS         CLOUDY    77  58  51 CALM      29.95S                  
6HR MIN TEMP:  77; 6HR MAX TEMP:  90;                                

CHAMBLEE       CLOUDY    80  52  37 NW6       29.96R                  
6HR MIN TEMP:  80; 6HR MAX TEMP:  89;                                

PEACHTREE CITY CLOUDY    74  66  76 CALM      29.96R                  
6HR MIN TEMP:  74; 6HR MAX TEMP:  87;                                

ROME           CLOUDY    76  58  53 N5        29.96R                  
6HR MIN TEMP:  76; 6HR MAX TEMP:  86;                                

WEST ATLANTA   CLOUDY    79  56  45 CALM      29.95F                  
6HR MIN TEMP:  78; 6HR MAX TEMP:  86;                                

GAINESVILLE    CLOUDY    78  50  37 W3        29.99R                  
6HR MIN TEMP:  77; 6HR MAX TEMP:  86;                                

CARTERSVILLE   CLOUDY    71  59  65 CALM      29.96S                  
6HR MIN TEMP:  71; 6HR MAX TEMP:  87;                                


  
CITY           SKY/WX    TMP DP  RH WIND       PRES   REMARKS
DALTON*        CLOUDY    73  61  64 NW3       29.97S                  
LAWRENCEVILLE* CLEAR     79  54  41 CALM      29.97S                  
KENNESAW*      PTCLDY    79  48  34 VRB5      29.93R                  
CANTON*        CLOUDY    77  45  31 CALM      29.99S                  
BLAIRSVILLE*     N/A    N/A N/A N/A MISG      30.02R                  
$$

GAZ059>098-102>109-300100-
CENTRAL GEORGIA
  
CITY           SKY/WX    TMP DP  RH WIND       PRES   REMARKS
AUGUSTA-BUSH   CLOUDY    78  65  63 CALM      29.92R                  
6HR MIN TEMP:  77; 6HR MAX TEMP:  91;                                

AUGUSTA-DANIEL CLOUDY    86  55  34 NW5       29.95R                  
6HR MIN TEMP:  86; 6HR MAX TEMP:  93; 6HR PCP: TRACE;                

COLUMBUS       PTCLDY    84  59  42 CALM      29.91S                  
6HR MIN TEMP:  83; 6HR MAX TEMP:  88;                                

MACON          CLOUDY    81  59  47 E6        29.93S                  
6HR MIN TEMP:  81; 6HR MAX TEMP:  90;                                

ROBINS AFB     CLOUDY    78  70  75 N1        29.93R                  

  
CITY           SKY/WX    TMP DP  RH WIND       PRES   REMARKS
LAGRANGE*      PTCLDY    76  73  88 CALM      29.95S                  
SYLVANIA*      PTCLDY    83  63  50 CALM      29.92S                  
MILLEDGEVILLE* CLOUDY    77  61  57 CALM      29.94S                  
$$

GAZ099>101-110>166-300100-
SOUTH GEORGIA
  
CITY           SKY/WX    TMP DP  RH WIND       PRES   REMARKS
SAVANNAH       PTCLDY    80  57  45 SE9       29.94R                  
6HR MIN TEMP:  80; 6HR MAX TEMP:  93;                                

VALDOSTA       CLEAR     81  69  67 CALM      29.92R                  
6HR MIN TEMP:  81; 6HR MAX TEMP:  91;                                

ALMA           CLEAR     78  69  73 CALM      29.92R                  
6HR MIN TEMP:  78; 6HR MAX TEMP:  91;                                

ST SIMONS      CLEAR     76  71  85 SE8       29.94R                  
6HR MIN TEMP:  76; 6HR MAX TEMP:  84;                                

FT STEWART     PTCLDY    79  61  53 SE5       29.92R                  
ALBANY         CLEAR     84  67  56 CALM      29.93R                  
HUNTER AFB     PTCLDY    78  64  61 S6        29.92R                  
BRUNSWICK      CLEAR     84  70  61 SE6       29.95R                  

  
CITY           SKY/WX    TMP DP  RH WIND       PRES   REMARKS
BAINBRIDGE*    CLOUDY    84  68  58 CALM      29.91S                  
MOULTRIE*      CLEAR     86  64  48 CALM      29.93R                  
VIDALIA*       PTCLDY    82  61  47 CALM      29.94R                  
WAYCROSS*      CLEAR     80  70  70 CALM      29.92R                  
DOUGLAS*       CLEAR     86  63  45 CALM      29.94R                  
$$
  

Return to Home page


Western Regional Climate Center, wrcc@dri.edu